COSMOS 2251 DEB, 33766

Orbit data source: Space-Track

COSMOS 2251 DEB, 33766 is space debris in LEO originally from a launch on Wed, 16 Jun 1993 UTC launched from the Plesetsk Missile And Space Complex (PKMTR). The debris from Iridium 33, an American commercial communications satellite, has been tracked extensively since its accidental collision with the defunct Russian satellite Cosmos 2251 in 2009. This event, occurring at high speed in low Earth orbit (LEO), generated thousands of pieces of space debris, significantly increasing the risk of further collisions. The Iridium 33 debris cloud has impacted space traffic management and orbital debris mitigation strategies, making it a subject of ongoing study in space situational awareness.

Loading next visibility...
Identifier
33766, 1993-036P
Orbit
LEO
Country
Flag of CISCIS
Related business
Manufacturer
Unknown
Mission
Spacecraft
Bus & Motor
Unknown
Mass
Unknown
Launch date (UTC)
1993-06-16 (33 years ago)
Launch vehicle
Unknown
Launch site
Plesetsk Missile And Space Complex (PKMTR)
Object type
Payload
Rocket body
Debris
Shape & HBR
Unknown shape, 0.4 m
Radar Cross Section
Medium (>0.1 m² and <1 m²)

Expand to show TLE details & history
Last TLE update: 10 hours ago

TLE from 10 hours ago
0 COSMOS 2251 DEB
1 33766U 93036P   26121.35602396  .00001460  00000-0  50525-3 0  9993
2 33766  74.1861 241.3321 0063370  44.7051 315.9185 14.35422162897488
Epoch: 2026-05-01T08:32Z
TLE epoch observation values (Epoch: 2026-05-01T08:32:40.470Z)
Latitude
-0.00001°
Longitude
-106.12599°
Altitude
743.861 km
Speed
7.5 km/s
True Right ascension
16h 05m 19s
True Declination
0° 00' 00"
Sunlit
Object was in full shadow at epoch
Visualization orbit readout
Latitude
Unknown
Longitude
Unknown
Altitude
Unknown
Speed
Unknown
Apparent Right ascension
Unknown
Apparent Declination
Unknown
Sunlit
N/A
Visualization observer readout
Local Sidereal Time
02:24:03
Azimuth
Unknown
Elevation
Unknown
Doppler factor
Unknown
Orbital elements
Apogee altitude
816.581 km
Perigee altitude
725.97 km
Semi-major axis
7,149.413 km
Eccentricity
0.00634
Inclination
74.1861°
RAAN
241.3321°
Arg. of periapsis
44.7051°
True anomaly
315.41044°
Mean anomaly
315.9185°
Eccentric anomaly
315.66476°
Mean motion
3.59036 °/min
Orbital period
100.27 mins
BSTAR
0.00050525

Documentation

Showing up to 5 results
|